Weather History for Elizabethton, TN

Change the Weather History Date:

Wednesday, February 13, 2013

  Actual Average (KTRI) Record (KTRI)
Temperature  
Mean Temperature 42 °F 38 °F  
Max Temperature 50 °F 49 °F 72 °F (1961)
Min Temperature 35 °F 28 °F -2 °F (1955)
Degree Days  
Heating Degree Days 22 26  
Month to date heating degree days 360  
Since 1 July heating degree days 3014  
Cooling Degree Days 0 0  
Month to date cooling degree days 0  
Year to date cooling degree days 0  
Moisture  
Dew Point 37 °F    
Average Humidity 84    
Maximum Humidity 100    
Minimum Humidity 71    
Precipitation  
Precipitation 0.00 in 0.13 in 1.62 in (1991)
Month to date precipitation 1.62  
Year to date precipitation 4.99  
Snow  
Snow 0.00 in 0.10 in - ()
Month to date snowfall 1.7  
Since 1 July snowfall 9.1  
Snow Depth -    
Sea Level Pressure  
Sea Level Pressure 29.75 in    
Wind  
Wind Speed 6 mph (West)    
Max Wind Speed 13 mph    
Max Gust Speed -    
Visibility 9 miles    
Events Rain    
T = Trace of Precipitation, MM = Missing Value Source: NWS Daily Summary

Daily Weather History Graph

Daily Weather History Graph

Search for Another Location

Airport:

Trip Planner

Search our weather history database for the weather conditions in past years. The results will help you decide how hot, cold, wet, or windy it might be!

Date:

Astronomy

Feb. 13, 2013 Rise Set
Actual Time 7:18 AM EST 6:07 PM EST
Civil Twilight 6:51 AM EST 6:34 PM EST
Nautical Twilight 6:21 AM EST 7:04 PM EST
Astronomical Twilight 5:51 AM EST 7:34 PM EST
Moon 8:55 AM EST (2/13) 10:00 PM EST (2/13)
Length of Visible Light 11h 42m
Length of Day
10h 49m
Waxing Crescent, 13% of the Moon is Illuminated
Feb 13
Waxing Crescent
Feb 17
First Quarter
Feb 25
Full
Mar 4
Last Quarter
Mar 11
New

Hourly Weather History & Observations

Time (EST) Temp. Windchill Dew Point Humidity Pressure Visibility Wind Dir Wind Speed Gust Speed Precip Events Conditions
12:55 AM 39.2 °F 35.9 °F 35.6 °F 87% 29.87 in 10.0 mi East 4.6 mph - N/A   Overcast
1:15 AM 41.0 °F 38.0 °F 35.6 °F 81% 29.87 in 10.0 mi East 4.6 mph - N/A   Overcast
1:35 AM 41.0 °F 35.8 °F 35.6 °F 81% 29.86 in 10.0 mi East 8.1 mph - N/A   Overcast
1:55 AM 41.0 °F 37.1 °F 35.6 °F 81% 29.83 in 10.0 mi ENE 5.8 mph - N/A   Overcast
2:15 AM 41.0 °F 39.0 °F 33.8 °F 76% 29.83 in 10.0 mi ENE 3.5 mph - N/A   Overcast
2:35 AM 42.8 °F 38.6 °F 35.6 °F 76% 29.82 in 10.0 mi East 6.9 mph - N/A   Overcast
2:55 AM 41.0 °F 39.0 °F 35.6 °F 81% 29.80 in 10.0 mi ESE 3.5 mph - N/A   Light Drizzle
3:15 AM 41.0 °F 39.0 °F 35.6 °F 81% 29.79 in 10.0 mi East 3.5 mph - N/A   Light Drizzle
3:35 AM 41.0 °F - 35.6 °F 81% 29.79 in 10.0 mi Calm Calm - N/A Rain Light Rain
3:55 AM 39.2 °F - 37.4 °F 93% 29.79 in 9.0 mi Calm Calm - N/A Rain Light Rain
4:15 AM 39.2 °F 35.9 °F 37.4 °F 93% 29.77 in 5.0 mi ENE 4.6 mph - N/A Rain Rain
4:35 AM 39.2 °F - 37.4 °F 93% 29.78 in 6.0 mi Calm Calm - N/A Rain Rain
4:55 AM 39.2 °F 35.0 °F 37.4 °F 93% 29.76 in 6.0 mi NE 5.8 mph - N/A Rain Rain
5:15 AM 39.2 °F 35.9 °F 37.4 °F 93% 29.75 in 8.0 mi East 4.6 mph - N/A Rain Rain
5:35 AM 39.2 °F 35.9 °F 39.2 °F 100% 29.74 in 6.0 mi East 4.6 mph - N/A Rain Light Rain
5:55 AM 39.2 °F 35.0 °F 39.2 °F 100% 29.72 in 10.0 mi East 5.8 mph - N/A   Overcast
6:15 AM 39.2 °F 35.9 °F 39.2 °F 100% 29.71 in 10.0 mi East 4.6 mph - N/A   Overcast
6:35 AM 39.2 °F 37.0 °F 39.2 °F 100% 29.71 in 10.0 mi East 3.5 mph - N/A   Overcast
6:55 AM 39.2 °F 35.9 °F 39.2 °F 100% 29.69 in 10.0 mi East 4.6 mph - N/A   Overcast
7:15 AM 41.0 °F 38.0 °F 37.4 °F 87% 29.70 in 10.0 mi East 4.6 mph - N/A   Overcast
7:35 AM 41.0 °F 37.1 °F 39.2 °F 93% 29.70 in 10.0 mi East 5.8 mph - N/A   Overcast
7:55 AM 42.8 °F 40.1 °F 39.2 °F 87% 29.70 in 10.0 mi East 4.6 mph - N/A   Overcast
8:15 AM 42.8 °F 39.3 °F 39.2 °F 87% 29.69 in 10.0 mi East 5.8 mph - N/A   Overcast
8:35 AM 42.8 °F 38.6 °F 39.2 °F 87% 29.68 in 10.0 mi East 6.9 mph - N/A   Overcast
8:55 AM 42.8 °F 38.6 °F 39.2 °F 87% 29.67 in 10.0 mi East 6.9 mph - N/A   Mostly Cloudy
9:15 AM 44.6 °F 40.7 °F 39.2 °F 81% 29.66 in 10.0 mi ENE 6.9 mph - N/A   Partly Cloudy
9:35 AM 46.4 °F 42.9 °F 39.2 °F 76% 29.65 in 10.0 mi ENE 6.9 mph - N/A   Partly Cloudy
9:55 AM 46.4 °F 42.9 °F 39.2 °F 76% 29.66 in 10.0 mi East 6.9 mph - N/A   Mostly Cloudy
10:15 AM 48.2 °F - 39.2 °F 71% 29.65 in 10.0 mi East 8.1 mph - N/A   Mostly Cloudy
10:35 AM 48.2 °F - 41.0 °F 76% 29.65 in 10.0 mi East 4.6 mph - N/A   Scattered Clouds
10:55 AM 48.2 °F - 39.2 °F 71% 29.64 in 10.0 mi Variable 4.6 mph - N/A   Mostly Cloudy
11:15 AM 48.2 °F - 39.2 °F 71% 29.64 in 10.0 mi East 3.5 mph - N/A   Overcast
11:35 AM 50.0 °F - 41.0 °F 71% 29.64 in 10.0 mi Calm Calm - N/A   Overcast
11:55 AM 50.0 °F - 41.0 °F 71% 29.64 in 10.0 mi WSW 4.6 mph - N/A   Overcast
12:15 PM 50.0 °F - 41.0 °F 71% 29.63 in 10.0 mi WSW 8.1 mph - N/A   Overcast
12:35 PM 46.4 °F 42.4 °F 42.8 °F 87% 29.63 in 9.0 mi NW 8.1 mph - N/A   Light Drizzle
12:55 PM 46.4 °F 41.1 °F 42.8 °F 87% 29.63 in 8.0 mi WNW 11.5 mph - N/A Rain Light Rain
1:15 PM 44.6 °F 38.8 °F 42.8 °F 93% 29.63 in 6.0 mi West 11.5 mph - N/A Rain Light Rain
1:35 PM 44.6 °F 39.7 °F 41.0 °F 87% 29.64 in 10.0 mi West 9.2 mph - N/A   Overcast
1:55 PM 44.6 °F 40.2 °F 41.0 °F 87% 29.64 in 5.0 mi West 8.1 mph - N/A Rain Rain
2:15 PM 42.8 °F 37.0 °F 41.0 °F 93% 29.64 in 10.0 mi West 10.4 mph - N/A   Overcast
2:35 PM 42.8 °F 37.0 °F 41.0 °F 93% 29.64 in 7.0 mi West 10.4 mph - N/A   Overcast
2:55 PM 42.8 °F 36.6 °F 41.0 °F 93% 29.65 in 5.0 mi WSW 11.5 mph - N/A Rain Rain
3:15 PM 42.8 °F 36.6 °F 41.0 °F 93% 29.65 in 7.0 mi West 11.5 mph - N/A Rain Light Rain
3:35 PM 44.6 °F 38.8 °F 41.0 °F 87% 29.65 in 10.0 mi WSW 11.5 mph - N/A   Overcast
3:55 PM 42.8 °F 37.0 °F 39.2 °F 87% 29.66 in 4.0 mi West 10.4 mph - N/A Rain Rain
4:15 PM 42.8 °F 36.6 °F 39.2 °F 87% 29.67 in 6.0 mi West 11.5 mph - N/A Rain Light Rain
4:35 PM 42.8 °F 37.5 °F 39.2 °F 87% 29.69 in 10.0 mi West 9.2 mph - N/A   Mostly Cloudy
4:55 PM 42.8 °F 37.0 °F 37.4 °F 81% 29.71 in 10.0 mi WNW 10.4 mph - N/A Rain Light Rain
5:15 PM 41.0 °F 35.2 °F 35.6 °F 81% 29.74 in 10.0 mi West 9.2 mph - N/A   Overcast
5:35 PM 39.2 °F 34.2 °F 35.6 °F 87% 29.75 in 10.0 mi Variable 6.9 mph - N/A   Mostly Cloudy
5:55 PM 39.2 °F 33.0 °F 33.8 °F 81% 29.77 in 10.0 mi West 9.2 mph - N/A   Overcast
6:15 PM 39.2 °F 34.2 °F 33.8 °F 81% 29.79 in 10.0 mi WSW 6.9 mph - N/A Rain Light Rain
6:35 PM 37.4 °F 32.8 °F 32.0 °F 81% 29.81 in 10.0 mi West 5.8 mph - N/A   Overcast
6:55 PM 37.4 °F 32.8 °F 30.2 °F 75% 29.82 in 10.0 mi WNW 5.8 mph - N/A   Overcast
7:15 PM 37.4 °F 30.8 °F 30.2 °F 75% 29.84 in 10.0 mi West 9.2 mph - N/A   Overcast
7:35 PM 37.4 °F 32.8 °F 30.2 °F 75% 29.85 in 10.0 mi WNW 5.8 mph - N/A   Overcast
7:55 PM 37.4 °F 29.3 °F 30.2 °F 75% 29.86 in 10.0 mi West 12.7 mph - N/A   Overcast
8:15 PM 35.6 °F 29.9 °F 30.2 °F 81% 29.87 in 10.0 mi West 6.9 mph - N/A   Overcast
8:35 PM 35.6 °F 29.9 °F 30.2 °F 81% 29.86 in 10.0 mi West 6.9 mph - N/A   Overcast
8:55 PM 35.6 °F 31.7 °F 30.2 °F 81% 29.87 in 10.0 mi WSW 4.6 mph - N/A   Overcast
9:15 PM 35.6 °F 29.9 °F 30.2 °F 81% 29.88 in 10.0 mi WSW 6.9 mph - N/A   Overcast
9:35 PM 35.6 °F 29.2 °F 30.2 °F 81% 29.89 in 10.0 mi West 8.1 mph - N/A   Overcast
9:55 PM 35.6 °F 29.2 °F 30.2 °F 81% 29.89 in 10.0 mi West 8.1 mph - N/A   Overcast
10:15 PM 35.6 °F 29.9 °F 30.2 °F 81% 29.90 in 10.0 mi WSW 6.9 mph - N/A   Overcast
10:35 PM 35.6 °F 28.6 °F 30.2 °F 81% 29.91 in 10.0 mi WSW 9.2 mph - N/A   Overcast
10:55 PM 35.6 °F 29.9 °F 30.2 °F 81% 29.91 in 10.0 mi WSW 6.9 mph - N/A   Overcast
11:15 PM 35.6 °F 28.0 °F 30.2 °F 81% 29.91 in 10.0 mi WSW 10.4 mph - N/A   Overcast
11:35 PM 35.6 °F 29.2 °F 30.2 °F 81% 29.92 in 10.0 mi WSW 8.1 mph - N/A   Overcast
11:55 PM 35.6 °F 31.7 °F 30.2 °F 81% 29.92 in 10.0 mi Variable 4.6 mph - N/A   Overcast